This demonstration page uses our WeatherBlox Daily Observations layout. Learn more.

Left ArrowRight Arrow

30.21309, -93.2044

Hourly Observations for March 14, 2015

Temp ( °F °C ) Dew Point ( °F °C ) Humidity (%) Winds ( mph kmh ) Pressure ( in mb ) Visibility ( mi km ) Precip ( " mm )
12:15 am 00:15 Cloudy 62 16.5 58 14.4 87 87 SW 6 9 30.03 1017 10 16 0.00 0.00
12:35 am 00:35 Cloudy 62 16.5 58 14.5 88 88 SW 6 9 30.03 1017 10 16 0.00 0.00
12:55 am 00:55 Cloudy 62 16.5 58 14.5 88 88 SW 5 7 30.03 1017 10 16 0.00 0.00
1:15 am 01:15 Cloudy 62 16.5 58 14.4 87 87 Calm 30.00 1016 10 16 0.00 0.00
1:35 am 01:35 Mostly Cloudy 61 16.2 58 14.2 88 88 Calm 30.00 1016 10 16 0.00 0.00
1:55 am 01:55 Partly Cloudy 60 15.5 57 14.1 91 91 WSW 5 7 30.00 1016 10 16 0.00 0.00
2:15 am 02:15 Clear 60 15.6 58 14.2 91 91 SW 6 9 30.00 1016 10 16 0.00 0.00
2:35 am 02:35 Clear 60 15.6 58 14.2 91 91 SW 6 9 30.03 1017 10 16 0.00 0.00
2:55 am 02:55 Clear 60 15.5 57 14 91 91 WSW 7 11 30.03 1017 10 16 0.00 0.00
3:15 am 03:15 Clear 59 15 57 13.8 93 93 SW 7 11 30.03 1017 10 16 0.00 0.00
3:35 am 03:35 Mostly Cloudy 59 15.1 57 14.1 94 94 WSW 9 15 30.03 1017 10 16 0.00 0.00
3:55 am 03:55 Cloudy 60 15.4 57 14.1 92 92 WSW 8 13 30.03 1017 10 16 0.00 0.00
4:15 am 04:15 Cloudy 60 15.4 57 14 91 91 SW 6 9 30.03 1017 10 16 0.00 0.00
4:35 am 04:35 Cloudy 59 15.2 57 14 93 93 SW 7 11 30.03 1017 7 11 0.00 0.00
4:55 am 04:55 Cloudy 59 15.2 57 14 93 93 W 3 6 30.03 1017 7 11 0.00 0.00
5:15 am 05:15 Cloudy with Mist and Fog 59 15.1 57 14 93 93 SW 3 6 30.03 1017 5 8 0.00 0.00
6:00 am 06:00 Cloudy 59 15 57 14 94 94 SW 5 7 30.06 1018 7 11 0.00 0.00
6:50 am 06:50 Cloudy 61 16 57 14 88 88 W 5 7 30.06 1018 7 11 0.00 0.00
7:50 am 07:50 Partly Cloudy 61 16 57 14 88 88 SW 6 9 30.09 1019 10 16 0.00 0.00
8:50 am 08:50 Mostly Sunny 61 16 57 14 88 88 Calm 30.09 1019 10 16 0.00 0.00
9:50 am 09:50 Mostly Sunny 64 18 59 15 83 83 W 5 7 30.09 1019 10 16 0.00 0.00
10:50 am 10:50 Mostly Sunny 66 19 59 15 78 78 W 3 6 30.09 1019 10 16 0.00 0.00
11:50 am 11:50 Mostly Sunny 72 22 57 14 61 61 SW 10 17 30.09 1019 10 16 0.00 0.00
12:50 pm 12:50 Partly Cloudy 72 22 59 15 65 65 S 12 19 30.09 1019 10 16 0.00 0.00
1:50 pm 13:50 Mostly Cloudy 73 23 59 15 61 61 S 7 11 30.06 1018 10 16 0.00 0.00
2:50 pm 14:50 Partly Cloudy 73 23 63 17 69 69 SW 15 24 30.06 1018 10 16 0.00 0.00
3:50 pm 15:50 Mostly Sunny 73 23 61 16 65 65 SW 14 22 30.03 1017 10 16 0.00 0.00
4:50 pm 16:50 Mostly Sunny 72 22 61 16 69 69 SSW 15 24 30.06 1018 10 16 0.00 0.00
5:50 pm 17:50 Mostly Sunny 70 21 59 15 69 69 SSW 15 24 30.06 1018 10 16 0.00 0.00
6:50 pm 18:50 Mostly Sunny 66 19 59 15 78 78 SSW 9 15 30.06 1018 10 16 0.00 0.00
7:50 pm 19:50 Mostly Clear 64 18 59 15 83 83 SSW 8 13 30.09 1019 10 16 0.00 0.00
10:15 pm 22:15 Partly Cloudy 64 17.7 58 14.5 82 82 NW 8 13 30.12 1020 10 16 0.00 0.00
10:35 pm 22:35 Clear 63 17.4 57 13.7 79 79 NNW 6 9 30.12 1020 10 16 0.00 0.00
10:55 pm 22:55 Clear 62 16.9 57 13.8 82 82 N 5 7 30.12 1020 10 16 0.00 0.00
11:15 pm 23:15 Clear 62 16.7 56 13.3 80 80 NNW 6 9 30.15 1021 10 16 0.00 0.00
11:35 pm 23:35 Clear 62 16.6 55 13 79 79 NNW 3 6 30.15 1021 10 16 0.00 0.00
11:55 pm 23:55 Clear 61 16 55 12.5 80 80 NNW 3 6 30.15 1021 10 16 0.00 0.00

Powered by AerisWeather